Home   Weather   Stockholm   Past weeks

Flag for Sweden Past Weather in Stockholm, Sweden — Yesterday and Last 2 Weeks

39 °F

Light rain. Broken clouds.

Feels Like: 32 °F
Forecast: 42 / 44 °F
Wind: 10 mph from East

Location: Stockholm Bromma Airport

Current Time: Oct 22, 2016 at 3:38:24 PM

Latest Report: Oct 22, 2016 at 2:50 PM

Visibility: N/A

Pressure: 30.33 "Hg

Humidity: 81%

Dew Point: 34 °F

Location of StockholmLocation

Past Weather in Stockholm — Graph


Stockholm Temperature Yesterday

Maximum temperature yesterday: 46 °F (at 2:20 AM)
Minimum temperature yesterday: 43 °F (at 3:20 PM)
Average temperature yesterday: 44 °F

High & Low Weather Summary for the Past Weeks

High54 °F (Oct 7, 2:20 PM)100% (Oct 19, 4:50 AM)30.60 "Hg (Oct 19, 4:50 AM)
Low39 °F (Oct 22, 2:20 PM)57% (Oct 8, 9:20 AM)30.15 "Hg (Oct 19, 2:50 AM)
Average45 °F74%30.42 "Hg
* Reported Oct 7 2:20 PM — Oct 22 2:20 PM, Stockholm, Weather by CustomWeather, © 2016

Note: Actual official high and low records may vary slightly from our data, if they occured in-between our weather recording intervals... More about our weather records


Stockholm Weather History for the Previous 24 Hours

Scroll right to see more
Time TempWeatherWind HumidityBarometerVisibility
2:20 PM
Sat, Oct 22
39 °FLight rain. Partly sunny.12 mph81%30.33 "Hg5 mi
1:50 PM41 °FPartly sunny.13 mph70%30.33 "HgN/A
1:20 PM41 °FPartly sunny.14 mph70%30.30 "HgN/A
12:50 PM41 °FPartly sunny.14 mph70%30.33 "HgN/A
12:20 PM41 °FPartly sunny.14 mph66%30.33 "HgN/A
11:50 AM41 °FPartly sunny.12 mph66%30.33 "HgN/A
11:20 AM41 °FPartly sunny.13 mph66%30.33 "HgN/A
10:50 AM41 °FPartly sunny.14 mph66%30.33 "HgN/A
10:20 AM41 °FPartly sunny.15 mph66%30.33 "HgN/A
9:50 AM41 °FPartly sunny.14 mph66%30.33 "HgN/A
9:20 AM41 °FPartly sunny.12 mph66%30.33 "HgN/A
8:50 AM41 °FPartly sunny.16 mph66%30.33 "HgN/A
8:20 AM41 °FPartly sunny.14 mph66%30.33 "HgN/A
7:50 AM41 °FPartly sunny.14 mph66%30.30 "HgN/A
7:20 AM41 °FOvercast.14 mph66%30.30 "HgN/A
6:50 AM41 °FOvercast.14 mph66%30.30 "HgN/A
6:20 AM41 °FOvercast.16 mph66%30.30 "HgN/A
5:50 AM41 °FOvercast.16 mph66%30.33 "HgN/A
5:20 AM41 °FOvercast.15 mph66%30.30 "HgN/A
4:50 AM41 °FOvercast.12 mph66%30.33 "HgN/A
4:20 AM41 °FOvercast.13 mph66%30.33 "HgN/A
3:50 AM41 °FMostly cloudy.12 mph70%30.33 "HgN/A
3:20 AM41 °FOvercast.13 mph70%30.33 "HgN/A
2:50 AM41 °FOvercast.13 mph70%30.33 "HgN/A
2:20 AM41 °FOvercast.10 mph70%30.36 "HgN/A
1:50 AM41 °FOvercast.13 mph70%30.36 "HgN/A
1:20 AM41 °FOvercast.15 mph70%30.36 "HgN/A
12:50 AM41 °FOvercast.14 mph70%30.36 "HgN/A
12:20 AM41 °FOvercast.13 mph70%30.36 "HgN/A
11:50 PM
Fri, Oct 21
43 °FOvercast.12 mph66%30.36 "HgN/A
11:20 PM43 °FOvercast.12 mph66%30.36 "HgN/A
10:50 PM43 °FOvercast.12 mph66%30.36 "HgN/A
10:20 PM43 °FMostly cloudy.13 mph66%30.36 "HgN/A
9:50 PM43 °FPassing clouds.13 mph66%30.36 "HgN/A
9:20 PM43 °FPassing clouds.12 mph66%30.36 "HgN/A
8:50 PM43 °FPassing clouds.12 mph66%30.36 "HgN/A
8:20 PM43 °FPassing clouds.10 mph66%30.36 "HgN/A
7:50 PM43 °FPassing clouds.13 mph66%30.36 "HgN/A
7:20 PM43 °FPassing clouds.12 mph66%30.33 "HgN/A
6:50 PM43 °FPassing clouds.12 mph71%30.36 "HgN/A
6:20 PM43 °FPassing clouds.10 mph71%30.36 "HgN/A
5:50 PM43 °FPassing clouds.12 mph66%30.36 "HgN/A
5:20 PM43 °FPartly sunny.12 mph71%30.33 "HgN/A
4:50 PM43 °FBroken clouds.12 mph71%30.33 "HgN/A
4:20 PM43 °FBroken clouds.10 mph71%30.33 "HgN/A
3:50 PM43 °FPartly sunny.13 mph66%30.33 "HgN/A
3:20 PM43 °FPartly sunny.13 mph66%30.33 "HgN/A
Weather by CustomWeather, © 2016

See weather overviewHow to use our weather pages